Hourly Weather Roundup
Issued by NWS Central Illinois

Home | Current Version | Previous Version | Text Only | Print | Product List | Glossary On
Versions: 1 2 3 4 5 6 7 8 9 10 11 12 13 14 15 16 17 18 19 20 21 22 23 24 25 26 27 28 29 30 31 32 33 34 35 36 37 38 39 40 41 42 43 44 45 46 47 48 49 50
000
NZUS43 KILX 301710
HWRILX

AREA WEATHER ROUNDUP
NATIONAL WEATHER SERVICE, LINCOLN IL
1200 PM CDT MON MAY 30 2016


CITY           SKY/WX    TMP DP  RH WIND       PRES   REMARKS
BLOOMINGTON    MOSUNNY   84  61  45 W6        30.06F HX  84
CHAMPAIGN      MOSUNNY   83  55  38 NW3       30.05F HX  82
DANVILLE       SUNNY     83  56  39 SW6       30.03F HX  82
DECATUR        MOSUNNY   83  61  47 SW3       30.05F HX  83
EFFINGHAM      SUNNY     82  64  53 SW5       30.08S HX  84
FLORA          PTSUNNY   85  61  44 CALM      30.07S HX  85
GALESBURG      PTSUNNY   76  59  54 S5        30.05F
JACKSONVILLE   SUNNY     84  62  46 W8        30.05F HX  85
LACON          MOSUNNY   84  59  43 W7        30.02F HX  84
LAWRENCEVILLE  MOSUNNY   84  59  42 VRB3      30.06F HX  84
LITCHFIELD     SUNNY     83  60  46 W5        30.07S HX  83
$$


CITY           SKY/WX    TMP DP  RH WIND       PRES   REMARKS
LINCOLN        MOSUNNY   85  64  48 W3        30.04F HX  86
MACOMB         PTSUNNY   80  58  47 N12       30.07F HX  80
MATTOON        MOSUNNY   82  59  45 S6        30.06S HX  82
MT CARMEL AP   MOSUNNY   83  56  40 CALM      30.06F HX  82
OLNEY-NOBLE AP MOSUNNY   82  61  47 CALM      30.07F HX  83
PARIS          SUNNY     84  58  41 CALM      30.06F HX  83
PEORIA         MOSUNNY   83  61  47 NW8       30.04F HX  83
PONTIAC        PTSUNNY   86  57  37 W9G16     30.03F HX  85
RANTOUL        NOT AVBL
ROBINSON       MOSUNNY   83  58  42 NW7       30.07S HX  82
SPRINGFIELD    SUNNY     86  61  42 NW8       30.05F HX  86
TAYLORVILLE    SUNNY     84  62  47 W6        30.05F HX  84
$$

...REGIONAL REPORTS...


CITY           SKY/WX    TMP DP  RH WIND       PRES   REMARKS
CHICAGO O`HARE MOSUNNY   80  60  50 W10       30.02F HX  81
KANKAKEE       MOSUNNY   85  56  37 W6G16     30.03F HX  84
MOLINE         MOSUNNY   81  60  48 N8        30.03F HX  82
MOUNT STERLING MOSUNNY   81  66  59 W3        30.05F HX  83
MOUNT VERNON   SUNNY     84  63  48 CALM      30.07F HX  85
PITTSFIELD     SUNNY     83  67  58 N6        30.07F HX  85
QUINCY         MOSUNNY   82  63  52 VRB3      30.05F HX  83
ROCKFORD       MOSUNNY   82  58  43 NW9       30.05F HX  82
$$


CITY           SKY/WX    TMP DP  RH WIND       PRES   REMARKS
BURLINGTON     MOSUNNY   78  63  59 E7        30.04F HX  80
CEDAR RAPIDS   SUNNY     77  60  55 E14       30.04F
DES MOINES     MOSUNNY   83  62  49 SE7       29.99F HX  84
KIRKSVILLE     SUNNY     82  65  56 SW7       30.05F HX  84
OTTUMWA        SUNNY     80  67  64 S5        30.03S HX  82
ST LOUIS       PTSUNNY   88  60  38 CALM      30.06F HX  87
$$


CITY           SKY/WX    TMP DP  RH WIND       PRES   REMARKS
TERRE HAUTE    SUNNY     83  55  38 SW3       30.07S HX  82
EVANSVILLE     SUNNY     84  59  42 VRB6      30.06F HX  84
INDIANAPOLIS   MOSUNNY   83  55  38 W8        30.05S HX  82
LAFAYETTE      MOSUNNY   83  53  35 NW5       30.03F HX  82
MADISON        MOSUNNY   77  54  44 VRB7      30.04S
MILWAUKEE      PTSUNNY   80  58  46 VRB7      30.02S HX  80
$$





USA.gov is the U.S. government's official web portal to all federal, state and local government web resources and services.